Location: Bern�tre
(50.1974°N, 2.0915°E)
Time: 08:05:31
(UTC+00:00)

Cosmos 1833 Rocket - Pass Details

Date: 18 September 2020
Orbit: 831 x 841 km, 71.0° (Epoch: 27 October)

Event Time Altitude Azimuth Distance (km) Brightness Sun altitude
Rises 19:58:15 0° 333° (NNW) 3,408 6.8 -19.3°
Reaches altitude 10° 20:00:58 10° 343° (NNW) 2,470 5.7 -19.7°
Maximum altitude 20:06:02 32° 46° (NE) 1,402 3.7 -20.4°
Enters shadow 20:07:26 29° 74° (ENE) 1,510 3.6 -20.6°
